{"data":{"norad_id":52478,"intl_designator":"2022-049AD","name":"STARLINK-3825","alt_names":[],"object_type":"PAYLOAD","status":"ACTIVE","operator":null,"country":"US","launch_date":"2022-05-06","launch_site_code":"AFETR","launch_vehicle":null,"mission":null,"orbit_class":"UNKNOWN","rcs_meters":null,"size_class":null,"mass_kg":null,"dimensions":null,"purposes":["comms"],"wikipedia_slug":null,"has_3d_model":false,"image_url":null,"decayed_at":null,"tle_current":{"epoch":"2026-09-20T03:12:30.383136Z","epoch_age_seconds":94965,"freshness":"FRESH","line1":"1 52478U 22049AD  26263.13368499  .00004828  00000+0  14920-3 0  9995","line2":"2 52478  53.1597 255.9698 0001321  81.1386 278.9766 15.35403508242980","mean_motion":15.35403508,"eccentricity":0.0001321,"inclination_deg":53.1597,"raan_deg":255.9698,"arg_perigee_deg":81.1386,"mean_anomaly_deg":278.9766,"bstar":0.0001492,"rev_number":24298,"period_min":93.786421126244,"perigee_km":458.81894635714,"apogee_km":460.62550876506,"semimajor_km":6837.8592275611,"source":"CELESTRAK","updated_at":"2026-09-20T09:00:40.052875Z"}}}